**  Contrary to the mention on IAUC 8670, observations in 1977-1978,        **

**  Nucleus B observations in 1991-1992, New component observations in      **

**  2005-2006 can be linked using CO vaporization.  So that the computation **

**  strongly suggests that new component in 2005-2006 (Nucleus B) is        **

**  identical with the secondary nucleus observed during 1991-1992.         **



 101P/Chernykh - B

Epoch 2005 Dec. 16.0 TT = JDT 2453720.5  

T 2005 Dec. 24.37091 TT                                 Nakano

q   2.3501066            (2000.0)            P               Q

n   0.07080687     Peri.  263.15753     +0.83170809     -0.55108877

a   5.7865419      Node   130.25971     +0.53793472     +0.76972354

e   0.5938668      Incl.    5.07824     +0.13743323     +0.32222171

P  13.92 (+/- 0.02 day)

From 327 observations during 1977-1978, Nucleus B in 1991-1992 and 2005-2006,

   mean residual 1".06.

   Nongravitational parameters Y1 = +0.91 +/- 0.17, Y2 = -0.1008 +/- 0.0004,

   Y3 = -0.09 +/- 0.04, sublimating molecule = CO (or N2) using Yabushita's

   theory (MN 283, 347).

Residuals in seconds of arc 

1977/                     771007 083 (3.5+  5.0+)   911005 413  1.4+  1.2+  

770819 095 (3.3-  0.2-)   771007 083 (2.7+  3.6+)   911015 691  0.3-  1.3+  

770819 095 (3.3-  0.3+)   771008 046  1.1+  0.5+    911015 691  0.4-  1.0+  

770820 095 (3.0-  0.3-)   771008 046  0.0   0.6+    911015 691  0.1-  1.5+  

770822 095  2.5-  1.6+    771008 095  1.0-  1.4-    911016 691  0.1-  1.3+  

770823 095  0.1+  0.1+    771009 805  0.0   0.3+    911016 691  0.1-  1.2+  

770824 095  0.4-  0.9+    771009 485  2.1-  0.7+    911016 691  0.1-  1.4+  

770824 095  0.6+  0.0     771009 485  0.8-  0.8+    911105 691  1.0+  0.8+  

770825 095  1.2+  0.2+    771009 879  0.3-  1.1+    911105 691  0.8+  0.3+  

770827 083  0.0   1.5+    771009 879  0.9-  1.1+    911105 691  0.9+  0.9+  

770827 083 (3.2+  3.9+)   771009 046  0.1+  0.8+    911127 691  0.1+  0.9+  

770901 809  1.3-  0.3+    771009 046  0.7-  1.4+    911127 691  0.2-  0.6+  

770901 809  0.1-  0.6+    771011 805  0.9-  1.8+    911127 691  0.2+  0.7+  

770902 809  0.4+  0.3+    771011 801 (0.8-  3.4+)   911229 691  0.4-  0.7-  

770902 323  2.5+  1.3-    771011 372  0.3+  1.7-    911229 691  0.5-  0.6-  

770903 809  0.9+  0.2+    771011 372  0.3+  0.5+    911229 691  0.0   0.8-  

770903 494  2.1-  0.2-    771011 396  0.2+  1.7-    1992/                   

770904 414 (2.8-  0.8-)   771011 396  1.8+  1.4-    920127 691  1.9-  0.5+  

770904 323  1.5-  0.6-    771011 095 (0.8+  3.1+)   920127 691  1.3-  1.7+  

770904 372  1.9-  0.7+    771011 095  0.6-  0.4-    920306 691  0.1-  0.2-  

770904 372  0.7-  0.6-    771011 083 (0.7+  8.0+)   920306 691  0.6-  0.7-  

770905 885  1.4+  1.4-    771011 083 (3.7+  2.2+)   2005/                   

770905 885  1.9+  1.6-    771012 323  0.8-  0.7+    051130 704  2.1-  1.3-  

770905 885  1.2+  0.8-    771012 083 (0.6-  6.9+)   051130 704  1.3-  0.1-  

770905 323  0.1-  1.7-    771013 095  1.5+  0.3+    051130 704  1.5-  0.4-  

770906 885  0.8+  0.5+    771013 095  0.9-  0.5-    051130 704  1.5-  0.9-  

770906 380  0.5-  0.8+    771014 485  1.5+  1.6+    051130 704  1.1-  1.0-  

770906 380  2.1-  1.5+    771014 485  1.5+  0.1+    051130 703  0.8-  0.5-  

770906 095  0.6-  0.7-    771014 885  1.0-  0.4+    051130 703  0.1-  1.3-  

770906 095  0.1+  0.8-    771014 885  0.6+  0.9+    051130 703  0.2+  1.5-  

770906 046  0.7-  1.3-    771014 882  0.2-  1.9+    051130 703  0.1-  0.6-  

770907 414  1.1-  0.1-    771014 882  1.6+  0.2-    051201 G96  0.5+  0.8-  

770907 414  0.9-  0.1+    771015 885  1.8+  0.7-    051201 G96  0.6+  0.7-  

770907 020  0.7-  1.1-    771015 885  0.5-  1.4+    051201 G96  0.4+  0.6-  

770907 020  0.5+  1.6-    771016 046  0.1+  0.5-    051201 G96  0.7-  1.4-  

770908 801  0.6-  0.2+    771016 046  0.8+  0.6-    051202 703  0.5+  0.8-  

770908 688 (0.1+  2.8-)   771017 372  0.4-  0.9+    051202 703  0.0   0.5-  

770908 414  1.1-  1.5-    771017 885  2.4+  0.1+    051202 703  1.0+  0.9-  

770908 076  0.1+  2.0-    771017 885  1.1+  1.1+    051202 703  0.4+  1.5-  

770908 076  0.5-  1.1-    771017 323  1.5+  0.4+    051203 349  0.4-  1.5-  

770908 095  0.3-  0.1+    771017 323  1.0+  1.0+    051203 349  1.4-  0.5-  

770908 095  0.2+  0.8+    771017 095  0.8-  2.1+    051203 349  1.1-  1.1-  

770909 323  1.0+  0.4-    771017 095  0.2+  0.1+    051203 143  0.7+  0.0   

770909 046  0.2+  1.4-    771017 046  1.2+  0.1-    051203 143  0.6+  0.5-  

770909 046  1.2+  0.2-    771017 046  1.1+  0.0     051203 143  0.3+  0.5-  

770910 414  0.1+  0.7-    771018 688  1.1+  1.0-    051203 232  0.3+  0.6-  

770910 414  1.2+  1.4-    771018 878  0.4-  1.8+    051203 232  0.2+  0.9-  

770910 414  0.9-  0.6-    771018 095  1.7-  0.1+    051203 232  1.0-  1.4-  

770910 878  1.5+  2.1+ Y  771018 046  0.1+  0.3+    051205 939  0.4+  0.7-  

770910 885  0.2-  0.8+    771018 046  0.9+  0.1-    051205 939  0.7+  0.9-  

770910 095  0.4+  0.8-    771019 805  0.6+  0.8+    051206 703  0.0   1.2-  

770910 095  1.6+  0.3+    771019 046  0.7-  0.3-    051206 703  0.6+  0.3-  

770911 485  0.8+  0.4-    771019 046  0.5+  0.2+    051206 703  0.8+  0.1-  

770911 485  0.5+  0.3+    771031 323  0.1+  0.1+    051206 143  0.8+  0.2-  

770911 372  0.5-  0.2-    771102 095  1.7-  0.9+    051206 143  0.8+  0.6-  

770911 323  0.7-  0.1+    771102 095  0.1+  0.9+    051206 143  0.5+  0.5-  

770911 372  1.6+  0.0     771103 885  0.8+  0.5+    051207 213  0.4-  0.9-  

770912 323  1.0-  0.2+    771103 885  1.4+  2.4+    051207 213  0.3-  1.2-  

770912 046  1.1-  0.1-    771103 020  0.2+  2.3+    051207 213  0.1+  1.5-  

770912 046  0.4+  0.8+    771105 083 (2.1-  4.7+)   051207 147  0.1+  0.4-  

770913 675  1.6-  0.9-    771106 095  2.3-  0.8+    051207 204  0.2+  0.0   

770913 372  0.4-  0.3+    771106 095  0.4-  0.8+    051212 A32  1.4+  1.7+  

770913 372  0.6-  1.0+    771106 046  0.2-  1.2-    051212 A32  1.5+  1.7+  

770913 323  0.9-  0.6+    771106 046  2.2-  1.9-    051212 A32  0.7+  1.3+  

770913 046  1.1-  1.6-    771107 046  1.4-  2.6+    051212 461  1.2-  0.9-  

770913 046  0.7-  1.6-    771107 046  0.1+  1.2-    051212 461  0.1-  0.2-  

770914 414  0.8-  1.3-    771110 882  2.1-  2.6-    051214 213 (1.1+  3.1-) 

770914 414  0.3-  1.2-    771110 882  0.8-  2.0-    051214 213 (1.0+  2.9-) 

770914 414  1.2-  1.1-    771110 046  0.1+  1.0-    051214 213 (1.3+  2.6-) 

770914 885  0.2-  2.6+    771110 046  0.2+  0.4-    051218 143  0.2+  0.1+  

770914 046  0.4+  1.7-    771111 046  0.0   1.7-    051218 143  0.7+  0.3-  

770915 675  0.2-  0.2+    771113 323  2.2-  0.6-    051222 J97  1.3+  1.0+  

770915 414  0.6-  0.6-    771113 083 (0.9+  3.3+)   051223 143  1.0+  0.2+  

770916 688  1.2+  1.3-    771113 083 (3.5+  5.1+)   051223 143  0.7+  0.1+  

770916 879  0.4-  0.6+    771114 805  1.1-  0.2+    051223 143  0.3-  0.2+  

770916 879  0.1+  2.1+    771117 801  0.8-  0.6-    051223 213  0.7-  0.4+  

770916 414  0.4-  1.2-    771130 885  2.7+  2.3+    051223 213  1.2-  0.4+  

770916 414  1.0-  0.3-    771130 885  1.5+  0.5+    051223 213  1.4-  0.2+  

770916 414  0.5-  0.4-    771202 882  2.0+  2.2+    051224 349  1.4+  0.3+  

770916 391  1.0+  2.4-    771204 323  1.5-  0.8+    051224 349  1.7+  0.7+  

770916 414  1.2-  0.5-    771204 046  0.8+  0.1+    051224 349  1.1+  0.5+  

770916 391  1.7+  2.6-    771204 046  1.4+  0.3+    051225 232  0.2-  1.5-  

770916 885  1.7+  1.2-    771207 046  1.3+  0.8-    051227 704  0.7-  0.7-  

770916 885  0.6+  1.3-    771207 046  0.1+  1.6-    051227 704  0.1+  1.5+  

770916 046  0.8-  1.3-    771208 095  0.2+  0.6-    051227 704  0.8+  0.4+  

770917 414  1.2-  0.6+    771208 095  0.2-  2.1+    051227 704  1.4-  1.5+  

770917 414  1.0-  0.8-    771210 879  0.6-  0.0  Y  051229 143  0.4+  0.4+  

770917 414  0.8-  0.3-    771211 879  0.9-  2.1- Y  051229 143  1.6+  0.0   

770917 414  0.3-  0.2-    771211 879  0.9-  0.4- Y  051229 147  1.2+  0.3+  

770917 396  0.2+  0.0     771211 095  0.8+  0.8-    051229 147  0.9+  0.7+  

770917 396  0.2+  1.6-    771211 095  1.1-  0.6-    2006/                   

770917 414  0.5-  1.5-    771212 095  0.7+  0.9-    060101 J97  0.4+  1.6-  

770917 414  0.5-  0.3-    771212 095  1.9+  0.0     060104 143  0.6+  0.2+  

770917 083 (0.4+  3.7+)   771228 095  1.7+  0.4-    060104 143  1.9+  0.6+  

770918 688  0.7+  1.9-    1978/                     060104 213  0.8+  0.4+  

770918 372  1.4-  1.2-    780101 372  0.6+  2.6+    060104 213  1.0+  0.5+  

770918 323  0.2-  2.0-    780101 046  0.5+  0.1+    060104 213  0.9+  0.8+  

770918 095  0.7-  0.4+    780101 046  0.3+  0.2-    060107 204 (2.6-  0.3-) 

770918 095  1.1+  0.2-    780104 885  2.5-  2.3+    060107 204  1.7+  1.1+  

770919 688  0.8+  2.0-    780104 885  1.3-  2.1+    060109 461  0.9-  0.2-  

770919 323  0.3-  0.1+    780104 046  0.9-  1.0-    060109 461  0.6-  0.3+  

770922 095  0.8+  1.5+    780105 046  0.5-  2.6+    060109 461  0.6-  0.1+  

770922 095  1.0+  1.1+    780107 046  1.0-  0.3-    060113 G96  1.3-  0.4-  

770922 095  1.4+  1.9+    780107 046  0.1-  0.8-    060113 G96  1.2-  0.1+  

770922 095  0.1-  1.6+    780108 885  0.7+  1.1-    060113 G96  0.7-  0.1-  

770922 095  1.1-  1.5+    780108 046  1.2-  0.9-    060113 G96  0.9-  0.1+  

770923 396  0.3+  1.3-    780108 046  0.2-  1.0-    060115 198  0.7-  0.9+  

770923 396 (0.7+  2.9-)   780127 323 (2.5+  3.1+)   060115 198  0.6-  0.7+  

770929 323  1.0-  0.8+    780129 879  0.9+  0.3-    060115 198  1.0-  0.2+  

771004 688  0.6+  1.0-    780129 879  2.3+  0.1+    060119 215 (3.5-  3.0+) 

771004 323  1.2+  0.4+    780207 323  0.3-  1.0-    060121 213  0.3-  1.3+  

771004 076  2.0+  2.6+    780226 323  2.0-  1.3+    060121 213  0.4-  1.2+  

771004 076  1.3+  1.1+    780304 993 (1.3-  2.8+)   060123 704  1.5-  0.6+  

